Other Public Products
Issued by NWS Charleston, SC

Home | Current Version | Previous Version | Text Only | Print | Product List | Glossary On
Versions: 1 2 3 4 5 6 7 8 9 10 11 12 13 14 15 16 17 18 19 20 21 22 23 24 25 26 27 28 29 30 31 32 33 34 35 36 37 38 39 40 41 42 43 44 45 46 47 48 49 50
546
FPUS82 KCHS 270212
OPUCHS

TEST...KCHS/KSAV Gateway Observations...TEST
National Weather Service Charleston SC
1000 PM EDT WED APR 26 2017

NOTE: "fair" indicates few or no clouds below 12,000 feet with no
significant weather and/or obstructions to visibility.

SCZ050-WAZ558-NCZ071-TXZ119-213-PAZ071-DCZ001-FLZ074-172-MI076-
NYZ176-178-MAZ016-IL014-TNZ027-NJZ106-GAZ044-MD014-270300-

...Gateway Observations for Charleston International...

CITY           SKY/WX    TMP DP  RH WIND       PRES   REMARKS
Chas Airport   CLEAR     69  59  70 S10       29.87R
Seattle        PTSUNNY   53  39  59 SW15      29.89S
Charlotte      CLEAR     69  58  67 S7        29.82R
Dallas DFW     PTCLDY    58  46  64 NW9       29.76R
Dallas Love    PTCLDY    58  45  62 NW10      29.76R
Philladelphia  CLOUDY    62  56  80 CALM      29.84R
Wash National  MOCLDY    63  59  87 SE3       29.83R
Baltimore      PTCLDY    60  59  96 SE6       29.83R
Miami          PTCLDY    79  71  76 E12       29.91R
Detroit        MOCLDY    68  53  58 E3        29.56R
Newark         CLOUDY    60  58  92 CALM      29.84R
Laguardia      CLOUDY    61  56  83 E6        29.83R
J F K          CLOUDY    60  57  89 N3        29.84R
Boston Logan   FOG       50  50 100 N8        29.83R VSB 1/16
Ft. Lauderdale PTCLDY    78  70  76 SE14      29.91R
Chicago O`Hare CLOUDY    63  56  78 W5        29.45S
Chicago Midway LGT RAIN  67  57  70 W6        29.46S
Houston Bush   PTCLDY    74  57  55 N14       29.68R
Houston Hobby  PTCLDY    79  58  48 N17G24    29.65R
Nashville      CLOUDY    74  58  57 S16       29.59S
Atlanta        MOCLDY    73  58  59 S10       29.80R

$$

GAZ044-118-TXZ119-213-NCZ071-DCZ001-MDZ014-506-PAZ021-071-NJZ106-
NYZ176-178-MAZ106-OHZ011-021-055-MIZ076-KYZ091-ILZ014-INZ047-
MNZ060-ONZ431-270300-

...Gateway Observations for Savannah International...

CITY           SKY/WX    TMP DP  RH WIND       PRES   REMARKS
Savannah Arpt  PTCLDY    69  61  75 S7        29.86R
Atlanta        MOCLDY    73  58  59 S10       29.80R
Charlotte      CLEAR     69  58  67 S7        29.82R
Dallas DFW     PTCLDY    58  46  64 NW9       29.76R
Houston Bush   PTCLDY    74  57  55 N14       29.68R
Wash National  MOCLDY    63  59  87 SE3       29.83R
Wash Dulles    PTCLDY    62  56  80 CALM      29.82R
Baltimore      PTCLDY    60  59  96 SE6       29.83R
Philadelphia   CLOUDY    62  56  80 CALM      29.84R
Newark         CLOUDY    60  58  92 CALM      29.84R
Laguardia      CLOUDY    61  56  83 E6        29.83R
J F K          CLOUDY    60  57  89 N3        29.84R
Boston         FOG       50  50 100 N8        29.83R VSB 1/16
Pittsburg      PTCLDY    70  57  63 SE6       29.70R
Akron          CLEAR     71  50  47 S9        29.66R
Cleveland      CLOUDY    75  51  43 S10       29.64R
Cincinnati     CLOUDY    70  52  52 S7        29.58S
Columbus       CLOUDY    71  51  50 S7        29.61S
Detroit        MOCLDY    68  53  58 E3        29.56R
Chicago O`Hare CLOUDY    63  56  78 W5        29.45S
Minneapolis    CLOUDY    38  31  76 N12       29.59R WCI  30
Indianapolis   MOCLDY    65  58  78 E7        29.50S
Toronto Canada CLEAR     55  52  88 NE5       29.70S

$$




USA.gov is the U.S. government's official web portal to all federal, state and local government web resources and services.